2023/10/31 00:00:00, 0.5, 6.7
2023/10/31 00:10:00, 0.3, 6.9
2023/10/31 00:20:00, 0.5, 6.7
2023/10/31 00:30:00, 0.3, 6.5
2023/10/31 00:40:00, 0.4, 6.7
2023/10/31 00:50:00, 0.5, 6.6
2023/10/31 01:00:00, 0.3, 6.4
2023/10/31 01:10:00, 0.3, 6.4
2023/10/31 01:20:00, 0.3, 6.3
2023/10/31 01:30:00, 0.3, 6.5
2023/10/31 01:40:00, 0.4, 6.3
2023/10/31 01:50:00, 0.5, 6.7
2023/10/31 02:00:00, 1.0, 6.4
2023/10/31 02:10:00, 1.3, 6.5
2023/10/31 02:20:00, 1.7, 6.7
2023/10/31 02:30:00, 2.2, 6.6
2023/10/31 02:40:00, 2.4, 6.6
2023/10/31 02:50:00, 2.7, 6.6
2023/10/31 03:00:00,35.5, 7.1
2023/10/31 03:10:00,112.8, 6.8
2023/10/31 03:20:00,169.8, 6.7
2023/10/31 03:30:00,---, 6.6
2023/10/31 03:40:00,---, 6.8
2023/10/31 03:50:00,320.1, 6.8
2023/10/31 04:00:00,320.4, 7.0
2023/10/31 04:10:00,320.8, 6.7
2023/10/31 04:20:00,321.0, 6.8
2023/10/31 04:30:00,321.4, 6.9
2023/10/31 04:40:00,321.8, 6.9
2023/10/31 04:50:00,322.0, 6.7
2023/10/31 05:00:00,321.9, 6.7
2023/10/31 05:10:00,322.1, 6.8
2023/10/31 05:20:00,322.2, 6.7
2023/10/31 05:30:00,322.3, 6.8
2023/10/31 05:40:00,322.3, 6.7
2023/10/31 05:50:00,322.2, 6.6
2023/10/31 06:00:00,322.2, 7.0
2023/10/31 06:10:00,322.2, 6.7
2023/10/31 06:20:00,322.3, 6.5
2023/10/31 06:30:00,322.2, 6.7
2023/10/31 06:40:00,322.4, 6.7
2023/10/31 06:50:00,322.5, 7.0
2023/10/31 07:00:00,322.5, 6.9
2023/10/31 07:10:00,322.5, 6.9
2023/10/31 07:20:00,322.5, 7.2
2023/10/31 07:30:00,322.5, 7.1
2023/10/31 07:40:00,322.5, 7.1
2023/10/31 07:50:00,322.6, 7.4
2023/10/31 08:00:00,322.6, 7.8
2023/10/31 08:10:00,322.7, 8.3
2023/10/31 08:20:00,322.8, 8.7
2023/10/31 08:30:00,322.9, 9.0
2023/10/31 08:40:00,323.0, 9.6
2023/10/31 08:50:00,323.0, 9.9
2023/10/31 09:00:00,322.8,10.4
2023/10/31 09:10:00,218.0,10.4
2023/10/31 09:20:00, 0.9,11.3
2023/10/31 09:30:00, 0.4,11.4
2023/10/31 09:40:00, 0.3,11.8
2023/10/31 09:50:00, 0.4,12.4
2023/10/31 10:00:00, 0.4,12.8
2023/10/31 10:10:00, 0.3,13.2
2023/10/31 10:20:00, 0.2,13.6
2023/10/31 10:30:00, 0.3,13.5
2023/10/31 10:40:00, 0.5,14.4
2023/10/31 10:50:00, 0.3,15.2
2023/10/31 11:00:00, 0.4,15.9
2023/10/31 11:10:00, 0.8,16.9
2023/10/31 11:20:00, 0.1,17.2
2023/10/31 11:30:00, 0.0,17.7
2023/10/31 11:40:00, 0.0,17.6
2023/10/31 11:50:00, 0.0,17.9
2023/10/31 12:00:00, 0.0,18.3
2023/10/31 12:10:00, 0.0,18.5
2023/10/31 12:20:00, 0.0,18.9
2023/10/31 12:30:00, 0.1,18.7
2023/10/31 12:40:00, 0.1,19.1
2023/10/31 12:50:00, 0.2,18.9
2023/10/31 13:00:00, 0.1,19.4
2023/10/31 13:10:00, 0.1,19.5
2023/10/31 13:20:00, 0.2,19.7
2023/10/31 13:30:00, 0.1,19.6
2023/10/31 13:40:00, 0.2,19.2
2023/10/31 13:50:00, 0.1,19.3
2023/10/31 14:00:00, 0.2,18.9
2023/10/31 14:10:00, 0.1,17.7
2023/10/31 14:20:00, 0.1,17.6
2023/10/31 14:30:00, 0.0,16.9
2023/10/31 14:40:00, 0.1,17.1
2023/10/31 14:50:00, 0.2,16.7
2023/10/31 15:00:00, 0.1,16.6
2023/10/31 15:10:00, 0.2,15.9
2023/10/31 15:20:00, 0.3,15.6
2023/10/31 15:30:00, 0.3,14.8
2023/10/31 15:40:00, 0.3,13.9
2023/10/31 15:50:00, 0.3,13.8
2023/10/31 16:00:00, 0.2,13.3
2023/10/31 16:10:00, 0.1,13.1
2023/10/31 16:20:00, 0.2,12.4
2023/10/31 16:30:00, 0.3,12.0
2023/10/31 16:40:00, 0.3,11.9
2023/10/31 16:50:00, 0.3,11.6
2023/10/31 17:00:00, 0.3,11.3
2023/10/31 17:10:00, 0.3,11.0
2023/10/31 17:20:00, 0.2,10.8
2023/10/31 17:30:00, 0.2,10.3
2023/10/31 17:40:00, 0.2,10.6
2023/10/31 17:50:00, 0.3,10.7
2023/10/31 18:00:00, 0.2,10.6
2023/10/31 18:10:00, 0.2,10.7
2023/10/31 18:20:00, 0.3,10.3
2023/10/31 18:30:00, 0.3,10.2
2023/10/31 18:40:00, 0.3, 9.9
2023/10/31 18:50:00, 0.4, 9.8
2023/10/31 19:00:00, 0.3, 9.5
2023/10/31 19:10:00, 0.4, 9.5
2023/10/31 19:20:00, 0.4, 9.3
2023/10/31 19:30:00, 0.4, 9.0
2023/10/31 19:40:00, 0.3, 9.0
2023/10/31 19:50:00, 0.3, 9.1
2023/10/31 20:00:00, 0.4, 8.9
2023/10/31 20:10:00, 0.4, 8.7
2023/10/31 20:20:00, 0.4, 8.5
2023/10/31 20:30:00, 0.4, 8.7
2023/10/31 20:40:00, 0.3, 8.1
2023/10/31 20:50:00, 0.3, 8.2
2023/10/31 21:00:00, 0.3, 8.0
2023/10/31 21:10:00, 0.3, 8.3
2023/10/31 21:20:00, 0.4, 8.0
2023/10/31 21:30:00, 0.5, 7.8
2023/10/31 21:40:00, 0.5, 7.6
2023/10/31 21:50:00, 0.4, 7.5
2023/10/31 22:00:00, 0.3, 7.7
2023/10/31 22:10:00, 0.1, 7.6
2023/10/31 22:20:00, 0.1, 7.8
2023/10/31 22:30:00, 0.1, 7.5
2023/10/31 22:40:00, 0.4, 7.6
2023/10/31 22:50:00, 0.3, 7.4
2023/10/31 23:00:00, 0.4, 7.7
2023/10/31 23:10:00, 0.5, 7.5
2023/10/31 23:20:00, 0.7, 7.6
2023/10/31 23:30:00, 0.7, 7.5
2023/10/31 23:40:00, 0.4, 7.8
2023/10/31 23:50:00, 0.4, 7.9
